User: anonymous
Location: Caltech
(34.1382°N, 118.1253°W)
Time: 09:44:10
(UTC-07:00)
Language:

Iridium 95 - Orbit

View from above orbital plane
View from above orbital plane
View from above satellite
View from above satellite

Ground track
Ground track

The orbit data is extracted from the following two-line orbital elements,

1 27375U 02005D   14294.20347663  .00000593  00000-0  20467-3 0  4873
2 27375 086.3968 332.9436 0002251 105.5495 254.5949 14.34221291671882
Epoch (UTC): 21 October 2014 04:53:00
Eccentricity: 0.0002251
inclination: 86.3968°
perigee height: 776 km
apogee height: 779 km
right ascension of ascending node: 332.9436°
argument of perigee: 105.5495°
revolutions per day: 14.34221291
mean anomaly at epoch: 254.5949°
orbit number at epoch: 67188

The dashed part of the orbit path shows where the satellite is in the earth's shadow,  

DLR